This is the latest recevied weather packets stored in our database for station/object N7WSS. If no packets are shown the sender has not sent any weather packets the latest 10 day(s).
| Time | Temp. | Humidity | Pressure | Rain* | Wind** | Luminosity | Snow |
|---|---|---|---|---|---|---|---|
| 1777421497 | 26.67° C | 14% | 1012.1 hPa | 0 mm | - | - | - |
| 1777421193 | 27.22° C | 14% | 1012.1 hPa | 0 mm | - | - | - |
| 1777420889 | 27.22° C | 14% | 1011.9 hPa | 0 mm | - | - | - |
| 1777420586 | 27.78° C | 14% | 1011.9 hPa | 0 mm | - | - | - |
| 1777420282 | 27.78° C | 14% | 1012 hPa | 0 mm | - | - | - |
| 1777419977 | 27.78° C | 14% | 1011.8 hPa | 0 mm | - | - | - |
| 1777419675 | 28.33° C | 14% | 1011.7 hPa | 0 mm | - | - | - |
| 1777419373 | 28.33° C | 14% | 1011.7 hPa | 0 mm | - | - | - |
| 1777419072 | 28.33° C | 14% | 1011.7 hPa | 0 mm | - | - | - |
| 1777418771 | 28.89° C | 14% | 1012 hPa | 0 mm | - | - | - |
| 1777418469 | 28.33° C | 14% | 1012 hPa | 0 mm | - | - | - |
| 1777418164 | 28.33° C | 15% | 1011.9 hPa | 0 mm | - | - | - |
| 1777417861 | 28.33° C | 15% | 1012 hPa | 0 mm | - | - | - |
| 1777417556 | 28.89° C | 15% | 1011.9 hPa | 0 mm | - | - | - |
| 1777417253 | 28.89° C | 15% | 1011.9 hPa | 0 mm | - | - | - |
| 1777416949 | 28.33° C | 16% | 1012 hPa | 0 mm | - | - | - |
| 1777416649 | 28.89° C | 15% | 1012.1 hPa | 0 mm | - | - | - |
| 1777416345 | 28.89° C | 15% | 1012.4 hPa | 0 mm | - | - | - |
| 1777416044 | 28.89° C | 15% | 1012.3 hPa | 0 mm | - | - | - |
| 1777415741 | 28.33° C | 16% | 1012.3 hPa | 0 mm | - | - | - |
| 1777415437 | 28.89° C | 15% | 1012.1 hPa | 0 mm | - | - | - |
| 1777415131 | 30° C | 15% | 1012.4 hPa | 0 mm | - | - | - |
| 1777414827 | 30° C | 15% | 1012 hPa | 0 mm | - | - | - |
| 1777414522 | 28.89° C | 14% | 1011.9 hPa | 0 mm | - | - | - |
| 1777414221 | 29.44° C | 14% | 1012.3 hPa | 0 mm | - | - | - |
* Rain latest hour (hover to see other rain measurements)
** Current wind speed in m/s (hover to see current wind gust speed)